• In United Kingdom
  • List of Countries
  • For 7 days
  • Water Temperature
  • Satellite Maps
  • Weather Map
  • Weather Widgets
  • user-avatar
    Login

    Hourly Weather Arkadia

    Today, 23 November, Thursday

    Time Temperature Precipitation Wind Pressure Humidity
    00:00 +5°C° 0 mm 1 mps 666 mmHg 53%
    01:00 +5°C° 0 mm 1 mps 666 mmHg 51%
    02:00 +5°C° 0 mm 1 mps 666 mmHg 50%
    03:00 +5°C° 0 mm 1 mps 666 mmHg 48%
    04:00 +4°C° 0 mm 1 mps 666 mmHg 47%
    05:00 +5°C° 0 mm 1 mps 666 mmHg 48%
    06:00 +5°C° 0 mm 1 mps 666 mmHg 48%
    07:00 +6°C° 0 mm 1 mps 666 mmHg 47%
    08:00 +8°C° 0 mm 1 mps 667 mmHg 44%
    09:00 +10°C° 0 mm 1 mps 668 mmHg 40%
    10:00 +12°C° 0 mm 1 mps 669 mmHg 37%
    11:00 +13°C° 0 mm 1 mps 669 mmHg 37%
    12:00 +13°C° 0 mm 1 mps 669 mmHg 37%
    13:00 +14°C° 0 mm 1 mps 669 mmHg 39%
    14:00 +12°C° 0 mm 1 mps 668 mmHg 46%
    15:00 +11°C° 0 mm 1 mps 668 mmHg 52%
    16:00 +10°C° 0 mm 1 mps 667 mmHg 58%
    17:00 +9°C° 0 mm 1 mps 667 mmHg 62%
    18:00 +8°C° 0 mm 1 mps 667 mmHg 66%
    19:00 +7°C° 0 mm 1 mps 667 mmHg 70%
    20:00 +7°C° 0 mm 1 mps 667 mmHg 71%
    21:00 +6°C° 0 mm 1 mps 667 mmHg 71%
    22:00 +6°C° 0 mm 1 mps 667 mmHg 72%
    23:00 +6°C° 0 mm 1 mps 667 mmHg 71%

    Tomorrow, 24 November, Friday

    Time Temperature Precipitation Wind Pressure Humidity
    00:00 +6°C° 0 mm 1 mps 667 mmHg 71%
    01:00 +6°C° 0 mm 1 mps 667 mmHg 70%
    02:00 +5°C° 0 mm 1 mps 667 mmHg 70%
    03:00 +5°C° 0 mm 1 mps 666 mmHg 69%
    04:00 +5°C° 0 mm 1 mps 666 mmHg 69%
    05:00 +5°C° 0 mm 1 mps 666 mmHg 68%
    06:00 +5°C° 0 mm 1 mps 666 mmHg 67%
    07:00 +5°C° 0 mm 1 mps 667 mmHg 66%
    08:00 +8°C° 0 mm 1 mps 667 mmHg 60%
    09:00 +10°C° 0 mm 1 mps 668 mmHg 54%
    10:00 +12°C° 0 mm 1 mps 669 mmHg 48%
    11:00 +12°C° 0 mm 1 mps 669 mmHg 47%
    12:00 +13°C° 0 mm 1 mps 669 mmHg 46%
    13:00 +13°C° 0 mm 1 mps 669 mmHg 45%
    14:00 +12°C° 0 mm 1 mps 668 mmHg 52%
    15:00 +11°C° 0 mm 1 mps 668 mmHg 58%
    16:00 +9°C° 0 mm 1 mps 667 mmHg 65%
    17:00 +9°C° 0 mm 1 mps 667 mmHg 70%
    18:00 +8°C° 0 mm 1 mps 667 mmHg 75%
    19:00 +7°C° 0 mm 1 mps 667 mmHg 80%
    20:00 +7°C° 0 mm 1 mps 667 mmHg 81%
    21:00 +6°C° 0 mm 1 mps 667 mmHg 81%
    22:00 +6°C° 0 mm 1 mps 667 mmHg 82%
    23:00 +6°C° 0 mm 1 mps 667 mmHg 82%

    Day after tomorrow, 25 November, Saturday

    Time Temperature Precipitation Wind Pressure Humidity
    00:00 +6°C° 0 mm 1 mps 667 mmHg 83%
    01:00 +6°C° 0 mm 1 mps 667 mmHg 83%
    02:00 +6°C° 0 mm 1 mps 667 mmHg 83%
    03:00 +5°C° 0 mm 1 mps 666 mmHg 83%
    04:00 +5°C° 0 mm 1 mps 666 mmHg 84%
    05:00 +5°C° 0 mm 1 mps 666 mmHg 83%
    06:00 +5°C° 0 mm 1 mps 666 mmHg 83%
    07:00 +5°C° 0 mm 1 mps 667 mmHg 83%
    08:00 +7°C° 0 mm 1 mps 667 mmHg 75%
    09:00 +9°C° 0 mm 1 mps 668 mmHg 68%
    10:00 +11°C° 0 mm 1 mps 668 mmHg 61%
    11:00 +11°C° 0 mm 1 mps 668 mmHg 58%
    12:00 +12°C° 0 mm 1 mps 668 mmHg 55%
    13:00 +12°C° 0 mm 1 mps 668 mmHg 53%
    14:00 +11°C° 0 mm 1 mps 667 mmHg 59%
    15:00 +10°C° 0 mm 1 mps 667 mmHg 64%
    16:00 +9°C° 0 mm 1 mps 666 mmHg 70%
    17:00 +8°C° 0 mm 1 mps 666 mmHg 75%
    18:00 +7°C° 0 mm 1 mps 666 mmHg 80%
    19:00 +5°C° 0 mm 0 mps 666 mmHg 85%
    20:00 +6°C° 0 mm 1 mps 666 mmHg 86%
    21:00 +6°C° 0 mm 1 mps 666 mmHg 86%
    22:00 +6°C° 0 mm 1 mps 666 mmHg 87%
    23:00 +5°C° 0 mm 1 mps 666 mmHg 86%

    26 November, Sunday

    Time Temperature Precipitation Wind Pressure Humidity
    00:00 +5°C° 0 mm 1 mps 666 mmHg 85%
    01:00 +5°C° 0 mm 1 mps 666 mmHg 84%
    02:00 +5°C° 0 mm 1 mps 665 mmHg 82%
    03:00 +4°C° 0 mm 1 mps 665 mmHg 81%
    04:00 +4°C° 0 mm 1 mps 665 mmHg 79%
    05:00 +4°C° 0 mm 1 mps 665 mmHg 79%
    06:00 +4°C° 0 mm 1 mps 665 mmHg 78%
    07:00 +4°C° 0 mm 1 mps 665 mmHg 78%
    08:00 +6°C° 0 mm 1 mps 666 mmHg 71%
    09:00 +8°C° 0 mm 1 mps 666 mmHg 64%
    10:00 +10°C° 0 mm 1 mps 667 mmHg 57%
    11:00 +11°C° 0 mm 1 mps 667 mmHg 55%
    12:00 +12°C° 0 mm 1 mps 666 mmHg 53%
    13:00 +12°C° 0 mm 2 mps 666 mmHg 52%
    14:00 +11°C° 0 mm 1 mps 666 mmHg 57%
    15:00 +10°C° 0 mm 1 mps 665 mmHg 63%
    16:00 +9°C° 0 mm 1 mps 665 mmHg 69%
    17:00 +9°C° 0 mm 1 mps 665 mmHg 73%
    18:00 +8°C° 0 mm 1 mps 664 mmHg 78%
    19:00 +7°C° 0 mm 1 mps 664 mmHg 82%
    20:00 +7°C° 0.4 mm 1 mps 664 mmHg 82%
    21:00 +7°C° 0.4 mm 1 mps 664 mmHg 83%
    22:00 +7°C° 0.4 mm 1 mps 664 mmHg 83%
    23:00 +7°C° 0.5 mm 1 mps 663 mmHg 85%

    27 November, Monday

    Time Temperature Precipitation Wind Pressure Humidity
    00:00 +6°C° 0.5 mm 2 mps 663 mmHg 87%
    01:00 +6°C° 0.5 mm 2 mps 662 mmHg 89%
    02:00 +6°C° 1.3 mm 2 mps 662 mmHg 90%
    03:00 +6°C° 1.3 mm 2 mps 661 mmHg 91%
    04:00 +6°C° 1.3 mm 2 mps 661 mmHg 92%
    05:00 +6°C° 1.1 mm 2 mps 661 mmHg 92%
    06:00 +6°C° 1.1 mm 2 mps 660 mmHg 93%
    07:00 +6°C° 1.1 mm 2 mps 660 mmHg 93%
    08:00 +7°C° 0.4 mm 3 mps 661 mmHg 85%
    09:00 +8°C° 0.4 mm 3 mps 661 mmHg 77%
    10:00 +7°C° 0.4 mm 4 mps 661 mmHg 70%
    11:00 +7°C° 0.3 mm 5 mps 661 mmHg 68%
    12:00 +7°C° 0.3 mm 5 mps 661 mmHg 66%
    13:00 +7°C° 0.3 mm 6 mps 660 mmHg 64%
    14:00 +7°C° 0.2 mm 5 mps 660 mmHg 68%
    15:00 +6°C° 0.2 mm 5 mps 660 mmHg 72%
    16:00 +5°C° 0.2 mm 4 mps 660 mmHg 75%
    17:00 +5°C° 0.1 mm 4 mps 660 mmHg 78%
    18:00 +4°C° 0.1 mm 3 mps 661 mmHg 81%
    19:00 +4°C° 0.1 mm 3 mps 661 mmHg 84%
    20:00 +4°C° 0.1 mm 3 mps 661 mmHg 84%
    21:00 +3°C° 0.1 mm 3 mps 661 mmHg 85%
    22:00 +4°C° 0.1 mm 2 mps 661 mmHg 85%
    23:00 +4°C° 0.1 mm 2 mps 661 mmHg 86%

    28 November, Tuesday

    Time Temperature Precipitation Wind Pressure Humidity
    00:00 +4°C° 0.1 mm 2 mps 661 mmHg 87%
    01:00 +4°C° 0.1 mm 2 mps 661 mmHg 87%
    02:00 +4°C° 0.1 mm 2 mps 661 mmHg 88%
    03:00 +4°C° 0.1 mm 2 mps 661 mmHg 88%
    04:00 +4°C° 0.1 mm 2 mps 661 mmHg 89%
    05:00 +4°C° 0.1 mm 2 mps 662 mmHg 88%
    06:00 +3°C° 0.1 mm 2 mps 662 mmHg 88%
    07:00 +3°C° 0.1 mm 2 mps 662 mmHg 88%
    08:00 +5°C° 0.1 mm 2 mps 662 mmHg 80%
    09:00 +6°C° 0.1 mm 2 mps 663 mmHg 72%
    10:00 +7°C° 0.1 mm 2 mps 663 mmHg 64%
    11:00 +7°C° 0.1 mm 3 mps 663 mmHg 62%
    12:00 +7°C° 0.1 mm 3 mps 663 mmHg 60%
    13:00 +8°C° 0.1 mm 3 mps 663 mmHg 58%
    14:00 +7°C° 0.1 mm 3 mps 663 mmHg 63%
    15:00 +6°C° 0.1 mm 2 mps 663 mmHg 67%
    16:00 +5°C° 0.1 mm 2 mps 662 mmHg 71%
    17:00 +5°C° 0 mm 2 mps 663 mmHg 74%
    18:00 +4°C° 0 mm 2 mps 663 mmHg 78%
    19:00 +3°C° 0 mm 2 mps 663 mmHg 81%
    20:00 +3°C° 0 mm 2 mps 663 mmHg 83%
    21:00 +4°C° 0 mm 1 mps 663 mmHg 84%
    22:00 +3°C° 0 mm 1 mps 663 mmHg 85%
    23:00 +3°C° 0 mm 1 mps 663 mmHg 86%
    Show more